sat.trackr.live / text

‹ back to catalog

STARLINK-30254

NORAD 57533 · 2023-115N

PAYLOAD ACTIVE UNKNOWN

§ Identity

Operator
Country
US
Launch date
2023-08-08
Launch site
AFWTR
Launch vehicle
Mass (kg)
RCS (m²)

Purposes: comms

External: N2YO · Heavens-Above · Gunter

§ Orbital elements

Epoch: 2026-09-20T21:24:15.478848Z

Period
94.27 min
Inclination
43.0043°
Eccentricity
0.0001548
Mean motion
15.27580398 rev/d
Perigee alt
482.0 km
Apogee alt
484.1 km
Semi-major
6,861.2 km
B*
3.2442e-5
RAAN
80.7620°
Arg perigee
271.2779°
Mean anomaly
88.7895°
Rev number
17,521

§ Raw data

STARLINK-302541 57533U 23115N   26263.89184582  .00000631  00000+0  32442-4 0  99972 57533  43.0043  80.7620 0001548 271.2779  88.7895 15.27580398175214

JSON: /api/v1/satellites/57533 · /tle

For live sub-satellite position, see the globe view (requires WebGL).

§ Visibility from observer

Set your observer location to see the next 7 days of passes ≥ 10°. The values pass through the URL so the page stays shareable.

No JS? Fill the form by hand. The geolocation button needs JavaScript.